{"data":{"norad_id":54840,"epoch":"2026-09-20T21:06:14.748768Z","epoch_age_seconds":59879,"freshness":"FRESH","line1":"1 54840U 22177W   26263.87933737 -.00000328  00000+0 -24190-5 0  9991","line2":"2 54840  43.0007 110.4384 0000952 268.7720  91.3023 15.27576677206814","mean_motion":15.27576677,"eccentricity":9.52e-5,"inclination_deg":43.0007,"raan_deg":110.4384,"arg_perigee_deg":268.772,"mean_anomaly_deg":91.3023,"bstar":-2.419e-6,"rev_number":20681,"period_min":94.266953775964,"perigee_km":482.40586045152,"apogee_km":483.71223217874,"semimajor_km":6861.1960463151,"source":"CELESTRAK","updated_at":"2026-09-21T09:00:33.135433Z"}}